Regional Weather Roundup
Issued by NWS

Home | Current Version | Previous Version | Text Only | Print | Product List | Glossary On
Versions: 1 2 3 4 5 6 7 8 9 10 11 12 13 14 15 16 17 18 19 20 21 22 23 24 25 26 27 28 29 30 31 32 33 34 35 36 37 38 39 40 41 42 43 44 45 46 47 48 49 50
000
ASUS42 KFFC 040303
RWRGA
WEATHER ROUNDUP FOR GEORGIA
NATIONAL WEATHER SERVICE PEACHTREE CITY GA
1100 PM EDT SUN MAY 03 2015

NOTE: "FAIR" INDICATES FEW OR NO CLOUDS BELOW 12,000 FEET WITH NO
SIGNIFICANT WEATHER AND/OR OBSTRUCTIONS TO VISIBILITY.

* = USE WITH CAUTION. THE STATIONS MARKED WITH AN ASTERISK MAY NOT
REPORT WEATHER SUCH AS PRECIPITATION, FOG, OR THUNDER AND ARE NOT
QUALITY CONTROLLED BY NWS.

THE REMARK "TC" DENOTES TEMPERATURE READING IN DEGREES CELSIUS.

GAZ001>058-040400-
NORTH GEORGIA

CITY           SKY/WX    TMP DP  RH WIND       PRES   REMARKS
ATLANTA        MOCLDY    69  49  48 CALM      30.19R
ATHENS         CLEAR     64  51  62 CALM      30.19R
CHAMBLEE       CLEAR     62  50  64 CALM      30.19R
PEACHTREE CITY PTCLDY    58  55  90 CALM      30.20R
ROME           CLEAR     61  55  81 CALM      30.17R
WEST ATLANTA   MOCLDY    60  53  77 CALM      30.18R
GAINESVILLE    CLEAR     66  48  52 S3        30.21R
CARTERSVILLE   CLEAR     57  50  77 CALM      30.18R


CITY           SKY/WX    TMP DP  RH WIND       PRES   REMARKS
DALTON*        CLEAR     59  55  88 CALM      30.18R
MARIETTA       PTCLDY    63  52  66 CALM      30.19R
KENNESAW*      PTCLDY    63  52  67 CALM      30.20R
BLAIRSVILLE*     N/A     55  32  42 CALM      30.22S
$$

GAZ059>098-102>109-040400-
CENTRAL GEORGIA

CITY           SKY/WX    TMP DP  RH WIND       PRES   REMARKS
AUGUSTA-BUSH   CLEAR     58  54  86 CALM      30.19R
AUGUSTA-DANIEL CLEAR     72  50  45 S3        30.20R
COLUMBUS       CLEAR     67  52  58 CALM      30.17R
MACON          CLEAR     60  55  83 CALM      30.19R
ROBINS AFB     CLEAR     61  57  86 SE2       30.18R


CITY           SKY/WX    TMP DP  RH WIND       PRES   REMARKS
LAGRANGE*      CLEAR     60  57  89 CALM      30.19R
SYLVANIA*      CLEAR     66  53  63 CALM      30.22R
MILLEDGEVILLE* CLEAR     61  59  94 CALM      30.19S
$$

GAZ099>101-110>166-040400-
SOUTH GEORGIA

CITY           SKY/WX    TMP DP  RH WIND       PRES   REMARKS
SAVANNAH       CLEAR     65  54  67 S3        30.22R
VALDOSTA       CLEAR     68  51  54 SE7       30.19R
ALMA           CLEAR     66  50  56 SE5       30.21R
ST SIMONS      CLEAR     67  54  63 CALM      30.22R
FT STEWART     CLEAR     61  54  76 CALM      30.20R
ALBANY         PTCLDY    65  55  70 CALM      30.19R
HUNTER AFB     CLEAR     63  58  83 S2        30.20R
MOODY AFB      CLEAR     66  51  57 SE6       30.19R
BRUNSWICK      CLEAR     59  52  77 CALM      30.23R


CITY           SKY/WX    TMP DP  RH WIND       PRES   REMARKS
BAINBRIDGE*    CLEAR     64  57  77 CALM      30.17R
MOULTRIE*      MOCLDY    66  57  72 CALM      30.19R
VIDALIA*       CLEAR     68  52  56 S5        30.22R
WAYCROSS*      CLEAR     70  55  57 SE7       30.21R
DOUGLAS*       CLEAR     70  50  49 SE3       30.22R
$$


USA.gov is the U.S. government's official web portal to all federal, state and local government web resources and services.